Content
SEND FEEDBACK

Daily
Averages
Monthly
Summary
United States of America

GLENS FALLS, NEW YORK


Home > North America > United States > New York
Elevation: 321 feet     Latitude: 43 21N     Longitude: 073 37W

WEATHER
 
SELECT A DAY
Number of Records: 213,367;   Date Range: 1/1/95 - 9/20/14
 
SHARE

PRINT THIS DATA

[ ← Previous Day ]
WEATHER ALMANAC - JANUARY 3, 2013
[ Next Day → ]
[ °C ]   °F
Weather ElementAverageHighLow
Temperature-2 °F12.9 °F (11:53 pm)-18 °F (7:53 am)
Dewpoint-8.5 °F6.1 °F (11:53 pm)-22 °F (7:53 am)
Humidity74.7 %86 % (3:53 am)59 % (3:53 pm)
Barometer30.20 in30.31 in (12:53 am)30.01 in (11:53 pm)
Wind Speed1.2 mph8.1 mph (11:53 pm)
Weather ElementAverage
Visibility9.9 mi
Wind DirectionNE (46.3 °)

Weather ElementTotal
Precipitation---
Heating Degree Days67.6 (Base 65)
Averaged from 30 records on January 3, 2013
WEATHER CONDITIONS BREAKOUT
WIND DIRECTION BREAKOUT
WEATHER BY HOUR - JANUARY 3, 2013
[ °C ]   °F
Local TimeTemperatureDewpointHumidityBarometerVisibilityWind DirectionWind SpeedGust SpeedPrecipitationEventsConditions
12:53 AM-5.1 °F-11.0 °F76 %30.31 in10.0 miCalmClear
1:31 AM-5.8 °F-9.4 °F84 %30.26 in10.0 miCalmMostly Cloudy
1:53 AM-8.0 °F-11.9 °F83 %30.31 in10.0 miCalmOvercast
2:53 AM-9.0 °F-13.0 °F83 %30.30 in10.0 miCalmMostly Cloudy
3:10 AM-11.2 °F-16.6 °F77 %30.25 in10.0 miCalmScattered Clouds
3:22 AM-11.2 °F-14.8 °F84 %30.25 in10.0 miCalmMostly Cloudy
3:32 AM-11.2 °F-14.8 °F84 %30.24 in10.0 miCalmScattered Clouds
3:40 AM-13.0 °F-16.6 °F84 %30.24 in10.0 miCalmMostly Cloudy
3:53 AM-13.0 °F-16.1 °F86 %30.29 in10.0 miCalmMostly Cloudy
4:17 AM-14.8 °F-18.4 °F84 %30.23 in10.0 miCalmScattered Clouds
4:53 AM-15.0 °F-18.9 °F82 %30.29 in10.0 miCalmClear
5:53 AM-15.0 °F-20.9 °F75 %30.29 in10.0 miCalmScattered Clouds
6:53 AM-17.0 °F-20.9 °F82 %30.29 in10.0 miCalmClear
7:53 AM-18.0 °F-22.0 °F82 %30.29 in10.0 miCalmClear
8:53 AM-11.0 °F-15.0 °F83 %30.26 in10.0 miCalmClear
9:53 AM-0.9 °F-5.1 °F83 %30.26 in10.0 miCalmClear
10:53 AM1.9 °F-5.1 °F72 %30.24 in10.0 miCalmClear
11:53 AM3.0 °F-6.0 °F66 %30.21 in10.0 miSSE (160°)4.6 mphClear
12:53 PM6.1 °F-4.0 °F63 %30.17 in10.0 miSSE (160°)3.5 mphMostly Cloudy
1:53 PM8.1 °F-2.9 °F61 %30.14 in10.0 miSSE (150°)3.5 mphOvercast
2:53 PM8.1 °F-2.9 °F61 %30.12 in10.0 miCalmOvercast
3:53 PM9.0 °F-2.9 °F59 %30.11 in10.0 miCalmOvercast
4:53 PM9.0 °F-2.0 °F61 %30.10 in10.0 miCalmOvercast
5:53 PM10.0 °F-0.9 °F61 %30.10 in10.0 miSouth (180°)3.5 mphOvercast
6:53 PM10.0 °F0.0 °F64 %30.10 in10.0 miSouth (190°)3.5 mphMostly Cloudy
7:53 PM10.0 °F1.9 °F70 %30.09 in10.0 miCalmOvercast
8:53 PM10.0 °F3.0 °F73 %30.07 in10.0 miCalmOvercast
9:53 PM10.9 °F3.0 °F70 %30.05 in10.0 miSSE (160°)4.6 mphOvercast
10:53 PM10.9 °F3.9 °F73 %30.04 in10.0 miSouth (190°)4.6 mphOvercast
11:53 PM12.9 °F6.1 °F74 %30.01 in7.0 miSSW (200°)8.1 mph0.00 inSnowLight Snow
Hourly data recorded from KGFL, located miles away from Glens Falls, New York







STORIES FROM OUR PARTNERS